When you browse on this site, cookies collect data to enhance your experience and personalize the content and advertising you see.
Visit our Privacy Policy to learn more. By continuing to use the site, you agree to this use of cookies and data.
  • In Hungary
  • List of Countries
  • For 7 days
  • Water Temperature
  • Satellite Maps
  • Weather Map
  • News
  • Weather Widgets
  • user-avatar
    Login

    Hourly Weather Saint George's

    Today, 19 July, Friday

    Time Temperature Precipitation Wind Pressure Humidity
    00:00 +29°C° 0.1 mm 7 mps 753 mmHg 83%
    01:00 +28°C° 0.1 mm 7 mps 753 mmHg 83%
    02:00 +28°C° 0.1 mm 7 mps 753 mmHg 83%
    03:00 +28°C° 0.1 mm 7 mps 753 mmHg 84%
    04:00 +28°C° 0.1 mm 7 mps 752 mmHg 85%
    05:00 +28°C° 0.1 mm 7 mps 752 mmHg 86%
    06:00 +28°C° 0.2 mm 7 mps 753 mmHg 85%
    07:00 +28°C° 0.2 mm 7 mps 753 mmHg 84%
    08:00 +29°C° 0.2 mm 8 mps 754 mmHg 83%
    09:00 +29°C° 0 mm 8 mps 754 mmHg 80%
    10:00 +31°C° 0 mm 8 mps 754 mmHg 76%
    11:00 +31°C° 0 mm 8 mps 754 mmHg 73%
    12:00 +31°C° 0 mm 8 mps 753 mmHg 73%
    13:00 +31°C° 0 mm 8 mps 753 mmHg 73%
    14:00 +31°C° 0 mm 8 mps 753 mmHg 73%
    15:00 +31°C° 0 mm 8 mps 752 mmHg 74%
    16:00 +29°C° 0 mm 8 mps 752 mmHg 75%
    17:00 +29°C° 0 mm 8 mps 752 mmHg 76%
    18:00 +29°C° 0 mm 8 mps 752 mmHg 77%
    19:00 +28°C° 0 mm 8 mps 752 mmHg 78%
    20:00 +28°C° 0 mm 8 mps 753 mmHg 79%
    21:00 +28°C° 0 mm 8 mps 753 mmHg 79%
    22:00 +28°C° 0 mm 8 mps 753 mmHg 78%
    23:00 +28°C° 0 mm 8 mps 754 mmHg 78%

    Tomorrow, 20 July, Saturday

    Time Temperature Precipitation Wind Pressure Humidity
    00:00 +28°C° 0 mm 8 mps 753 mmHg 78%
    01:00 +28°C° 0 mm 8 mps 753 mmHg 78%
    02:00 +28°C° 0 mm 8 mps 752 mmHg 78%
    03:00 +28°C° 0 mm 8 mps 752 mmHg 78%
    04:00 +28°C° 0 mm 8 mps 752 mmHg 78%
    05:00 +28°C° 0 mm 8 mps 752 mmHg 79%
    06:00 +28°C° 0 mm 8 mps 752 mmHg 77%
    07:00 +28°C° 0 mm 8 mps 753 mmHg 75%
    08:00 +29°C° 0 mm 8 mps 753 mmHg 74%
    09:00 +29°C° 0 mm 8 mps 753 mmHg 72%
    10:00 +31°C° 0 mm 8 mps 753 mmHg 71%
    11:00 +30°C° 0 mm 7 mps 754 mmHg 69%
    12:00 +30°C° 0 mm 7 mps 753 mmHg 69%
    13:00 +30°C° 0 mm 7 mps 753 mmHg 69%
    14:00 +30°C° 0 mm 7 mps 752 mmHg 69%
    15:00 +30°C° 0 mm 7 mps 752 mmHg 70%
    16:00 +30°C° 0 mm 7 mps 751 mmHg 71%
    17:00 +29°C° 0 mm 7 mps 751 mmHg 72%
    18:00 +29°C° 0 mm 7 mps 751 mmHg 75%
    19:00 +29°C° 0 mm 7 mps 752 mmHg 78%
    20:00 +28°C° 0 mm 7 mps 752 mmHg 81%
    21:00 +28°C° 0.1 mm 7 mps 752 mmHg 81%
    22:00 +28°C° 0.1 mm 6 mps 753 mmHg 82%
    23:00 +28°C° 0.1 mm 6 mps 753 mmHg 82%

    Day after tomorrow, 21 July, Sunday

    Time Temperature Precipitation Wind Pressure Humidity
    00:00 +28°C° 0.4 mm 6 mps 752 mmHg 83%
    01:00 +28°C° 0.4 mm 6 mps 752 mmHg 84%
    02:00 +27°C° 0.4 mm 6 mps 751 mmHg 84%
    03:00 +27°C° 0.1 mm 6 mps 751 mmHg 84%
    04:00 +27°C° 0.1 mm 6 mps 751 mmHg 83%
    05:00 +27°C° 0.1 mm 6 mps 751 mmHg 83%
    06:00 +28°C° 0.1 mm 6 mps 752 mmHg 81%
    07:00 +28°C° 0.1 mm 6 mps 752 mmHg 79%
    08:00 +28°C° 0.1 mm 7 mps 753 mmHg 78%
    09:00 +29°C° 0 mm 7 mps 753 mmHg 76%
    10:00 +29°C° 0 mm 7 mps 753 mmHg 73%
    11:00 +30°C° 0 mm 6 mps 753 mmHg 71%
    12:00 +30°C° 0 mm 6 mps 753 mmHg 71%
    13:00 +30°C° 0 mm 6 mps 752 mmHg 70%
    14:00 +30°C° 0 mm 6 mps 752 mmHg 69%
    15:00 +30°C° 0 mm 6 mps 751 mmHg 71%
    16:00 +29°C° 0 mm 6 mps 751 mmHg 73%
    17:00 +29°C° 0 mm 6 mps 751 mmHg 75%
    18:00 +28°C° 0 mm 6 mps 751 mmHg 77%
    19:00 +28°C° 0 mm 6 mps 752 mmHg 79%
    20:00 +28°C° 0 mm 6 mps 752 mmHg 81%
    21:00 +28°C° 0 mm 6 mps 753 mmHg 82%
    22:00 +28°C° 0 mm 6 mps 753 mmHg 82%
    23:00 +28°C° 0 mm 7 mps 753 mmHg 82%

    22 July, Monday

    Time Temperature Precipitation Wind Pressure Humidity
    00:00 +28°C° 0.1 mm 7 mps 753 mmHg 82%
    01:00 +28°C° 0.1 mm 6 mps 752 mmHg 81%
    02:00 +28°C° 0.1 mm 6 mps 752 mmHg 81%
    03:00 +28°C° 0 mm 6 mps 752 mmHg 81%
    04:00 +28°C° 0 mm 6 mps 752 mmHg 81%
    05:00 +28°C° 0 mm 6 mps 751 mmHg 80%
    06:00 +29°C° 0.2 mm 6 mps 752 mmHg 79%
    07:00 +29°C° 0.2 mm 6 mps 752 mmHg 77%
    08:00 +29°C° 0.2 mm 5 mps 753 mmHg 75%
    09:00 +30°C° 1.1 mm 6 mps 753 mmHg 73%
    10:00 +30°C° 1.1 mm 7 mps 753 mmHg 71%
    11:00 +32°C° 1.1 mm 8 mps 753 mmHg 68%
    12:00 +31°C° 2 mm 8 mps 753 mmHg 73%
    13:00 +29°C° 2 mm 8 mps 752 mmHg 78%
    14:00 +28°C° 2 mm 9 mps 752 mmHg 82%
    15:00 +28°C° 1.4 mm 9 mps 752 mmHg 82%
    16:00 +28°C° 1.4 mm 9 mps 752 mmHg 82%
    17:00 +28°C° 1.4 mm 9 mps 751 mmHg 82%
    18:00 +28°C° 0.3 mm 8 mps 752 mmHg 82%
    19:00 +28°C° 0.3 mm 8 mps 752 mmHg 82%
    20:00 +28°C° 0.3 mm 8 mps 753 mmHg 82%
    21:00 +28°C° 0.2 mm 8 mps 753 mmHg 82%
    22:00 +28°C° 0.2 mm 8 mps 753 mmHg 82%
    23:00 +28°C° 0.2 mm 8 mps 753 mmHg 82%

    23 July, Tuesday

    Time Temperature Precipitation Wind Pressure Humidity
    00:00 +28°C° 0.6 mm 8 mps 753 mmHg 82%
    01:00 +28°C° 0.6 mm 8 mps 752 mmHg 82%
    02:00 +28°C° 0.6 mm 8 mps 752 mmHg 82%
    03:00 +28°C° 0.7 mm 8 mps 752 mmHg 82%
    04:00 +28°C° 0.7 mm 8 mps 752 mmHg 82%
    05:00 +28°C° 0.7 mm 8 mps 752 mmHg 82%
    06:00 +28°C° 0.7 mm 8 mps 753 mmHg 82%
    07:00 +28°C° 0.7 mm 8 mps 753 mmHg 81%
    08:00 +29°C° 0.7 mm 8 mps 753 mmHg 80%
    09:00 +29°C° 0.2 mm 9 mps 753 mmHg 78%
    10:00 +29°C° 0.2 mm 9 mps 753 mmHg 76%
    11:00 +31°C° 0.2 mm 9 mps 753 mmHg 73%
    12:00 +31°C° 0 mm 9 mps 753 mmHg 72%
    13:00 +31°C° 0 mm 8 mps 753 mmHg 71%
    14:00 +31°C° 0 mm 8 mps 752 mmHg 71%
    15:00 +31°C° 0 mm 8 mps 752 mmHg 72%
    16:00 +31°C° 0 mm 8 mps 752 mmHg 74%
    17:00 +31°C° 0 mm 8 mps 751 mmHg 75%
    18:00 +29°C° 0 mm 8 mps 752 mmHg 75%
    19:00 +29°C° 0 mm 8 mps 752 mmHg 76%
    20:00 +29°C° 0 mm 8 mps 753 mmHg 76%
    21:00 +29°C° 0 mm 8 mps 753 mmHg 77%
    22:00 +29°C° 0 mm 8 mps 753 mmHg 77%
    23:00 +29°C° 0 mm 7 mps 754 mmHg 78%

    24 July, Wednesday

    Time Temperature Precipitation Wind Pressure Humidity
    00:00 +29°C° 0.1 mm 7 mps 753 mmHg 79%
    01:00 +28°C° 0.1 mm 7 mps 753 mmHg 80%
    02:00 +28°C° 0.1 mm 6 mps 752 mmHg 81%
    03:00 +28°C° 0.6 mm 6 mps 752 mmHg 81%
    04:00 +28°C° 0.6 mm 6 mps 752 mmHg 82%
    05:00 +27°C° 0.6 mm 6 mps 752 mmHg 82%
    06:00 +28°C° 0.6 mm 6 mps 752 mmHg 81%
    07:00 +28°C° 0.6 mm 6 mps 753 mmHg 81%
    08:00 +28°C° 0.6 mm 6 mps 753 mmHg 80%
    09:00 +29°C° 0.4 mm 6 mps 753 mmHg 77%
    10:00 +29°C° 0.4 mm 6 mps 753 mmHg 74%
    11:00 +30°C° 0.4 mm 6 mps 753 mmHg 71%
    12:00 +30°C° 0.2 mm 7 mps 753 mmHg 71%
    13:00 +30°C° 0.2 mm 7 mps 752 mmHg 71%
    14:00 +30°C° 0.2 mm 7 mps 752 mmHg 71%
    15:00 +30°C° 0.4 mm 7 mps 751 mmHg 72%
    16:00 +29°C° 0.4 mm 8 mps 751 mmHg 74%
    17:00 +29°C° 0.4 mm 8 mps 751 mmHg 76%
    18:00 +29°C° 0 mm 8 mps 751 mmHg 76%
    19:00 +29°C° 0 mm 8 mps 751 mmHg 76%
    20:00 +28°C° 0 mm 8 mps 752 mmHg 77%
    21:00 +28°C° 0 mm 8 mps 752 mmHg 76%
    22:00 +28°C° 0 mm 8 mps 752 mmHg 76%
    23:00 +28°C° 0 mm 8 mps 753 mmHg 76%
    Show more